TimeCST,TemperatureF,Dew PointF,Humidity,Sea Level PressureIn,VisibilityMPH,Wind Direction,Wind SpeedMPH,Gust SpeedMPH,PrecipitationIn,Events,Conditions,WindDirDegrees,DateUTC
12:15 AM,27.0,18.1,69,30.01,10.0,NW,15.0,28.8,N/A,,Clear,310,2013-03-05 06:15:00
12:35 AM,26.6,18.1,70,30.01,10.0,WNW,17.3,28.8,N/A,,Clear,300,2013-03-05 06:35:00
12:55 AM,26.4,17.6,69,30.02,10.0,WNW,19.6,29.9,N/A,,Clear,300,2013-03-05 06:55:00
1:15 AM,25.7,16.7,69,30.02,10.0,WNW,24.2,29.9,N/A,,Clear,300,2013-03-05 07:15:00
1:35 AM,25.3,16.3,69,30.03,10.0,WNW,20.7,27.6,N/A,,Clear,300,2013-03-05 07:35:00
1:55 AM,24.6,16.0,70,30.03,10.0,WNW,17.3,25.3,N/A,,Clear,300,2013-03-05 07:55:00
2:15 AM,24.3,15.4,69,30.03,10.0,WNW,15.0,24.2,N/A,,Clear,300,2013-03-05 08:15:00
2:35 AM,23.7,15.4,71,30.03,10.0,WNW,17.3,21.9,N/A,,Clear,300,2013-03-05 08:35:00
2:55 AM,23.5,15.4,71,30.03,10.0,WNW,17.3,20.7,N/A,,Clear,300,2013-03-05 08:55:00
3:15 AM,23.9,15.4,70,30.03,10.0,WNW,16.1,25.3,N/A,,Mostly Cloudy,300,2013-03-05 09:15:00
3:35 AM,23.9,15.8,71,30.03,10.0,WNW,15.0,23.0,N/A,,Overcast,300,2013-03-05 09:35:00
3:55 AM,24.3,16.3,72,30.03,10.0,WNW,20.7,25.3,N/A,,Overcast,300,2013-03-05 09:55:00
4:15 AM,24.8,17.1,72,30.03,10.0,WNW,19.6,31.1,N/A,,Overcast,290,2013-03-05 10:15:00
4:35 AM,24.6,18.0,76,30.03,10.0,WNW,19.6,27.6,N/A,,Overcast,300,2013-03-05 10:35:00
4:55 AM,24.8,18.3,76,30.03,10.0,WNW,25.3,31.1,N/A,,Overcast,300,2013-03-05 10:55:00
5:15 AM,25.0,18.5,76,30.04,10.0,WNW,21.9,31.1,N/A,,Overcast,300,2013-03-05 11:15:00
5:35 AM,25.2,18.5,76,30.05,10.0,WNW,26.5,29.9,N/A,,Overcast,300,2013-03-05 11:35:00
5:55 AM,25.2,19.0,78,30.05,10.0,WNW,24.2,36.8,N/A,Snow,Light Snow,300,2013-03-05 11:55:00
6:15 AM,25.2,19.2,78,30.05,10.0,WNW,21.9,39.1,N/A,,Overcast,300,2013-03-05 12:15:00
6:35 AM,25.5,19.6,78,30.05,10.0,NW,28.8,36.8,N/A,,Overcast,310,2013-03-05 12:35:00
7:15 AM,25.7,20.7,81,30.07,4.0,NW,27.6,36.8,N/A,Snow,Light Snow,310,2013-03-05 13:15:00
7:35 AM,25.7,20.8,82,30.08,3.0,NW,24.2,34.5,N/A,Snow,Light Snow,310,2013-03-05 13:35:00
7:55 AM,25.7,20.8,82,30.09,5.0,NW,27.6,36.8,N/A,Snow,Light Snow,310,2013-03-05 13:55:00
8:15 AM,25.7,21.2,83,30.10,4.0,NW,24.2,31.1,N/A,Snow,Light Snow,310,2013-03-05 14:15:00
8:35 AM,25.7,21.4,84,30.10,3.0,NW,25.3,35.7,N/A,Snow,Light Snow,320,2013-03-05 14:35:00
8:55 AM,26.1,21.4,82,30.11,4.0,NW,24.2,36.8,N/A,Snow,Light Snow,320,2013-03-05 14:55:00
9:15 AM,26.1,21.6,83,30.12,7.0,NW,26.5,42.6,N/A,,Overcast,320,2013-03-05 15:15:00
9:35 AM,26.6,21.9,82,30.13,10.0,NW,26.5,38.0,N/A,,Overcast,320,2013-03-05 15:35:00
9:55 AM,26.4,21.2,81,30.15,5.0,NW,28.8,42.6,N/A,Snow,Light Snow,320,2013-03-05 15:55:00
10:15 AM,26.2,21.0,81,30.15,2.5,NW,26.5,41.4,N/A,Snow,Light Snow,320,2013-03-05 16:15:00
10:35 AM,26.2,21.0,81,30.16,2.0,NNW,31.1,41.4,N/A,Snow,Light Snow,330,2013-03-05 16:35:00
10:55 AM,26.2,21.2,81,30.17,2.5,NNW,27.6,39.1,N/A,Snow,Light Snow,330,2013-03-05 16:55:00
11:15 AM,26.2,20.3,78,30.18,4.0,NNW,34.5,40.3,N/A,Snow,Light Snow,330,2013-03-05 17:15:00
11:35 AM,26.4,20.3,78,30.19,7.0,NNW,29.9,42.6,N/A,Snow,Light Snow,330,2013-03-05 17:35:00
11:55 AM,26.6,20.3,77,30.20,7.0,NNW,27.6,38.0,N/A,,Overcast,330,2013-03-05 17:55:00
12:15 PM,26.8,20.1,76,30.21,10.0,NNW,26.5,35.7,N/A,,Overcast,330,2013-03-05 18:15:00
12:35 PM,27.1,20.5,76,30.21,7.0,NNW,31.1,40.3,N/A,,Overcast,330,2013-03-05 18:35:00
12:55 PM,27.1,18.5,70,30.21,10.0,NNW,32.2,39.1,N/A,,Overcast,330,2013-03-05 18:55:00
1:15 PM,27.1,19.2,72,30.22,10.0,NNW,27.6,38.0,N/A,,Overcast,330,2013-03-05 19:15:00
1:35 PM,27.0,19.2,73,30.22,10.0,NNW,27.6,38.0,N/A,,Overcast,330,2013-03-05 19:35:00
1:55 PM,27.0,19.4,73,30.22,10.0,NNW,28.8,38.0,N/A,,Overcast,330,2013-03-05 19:55:00
2:15 PM,27.5,20.3,74,30.23,10.0,NNW,23.0,35.7,N/A,,Overcast,340,2013-03-05 20:15:00
2:35 PM,28.0,20.3,73,30.24,10.0,NNW,26.5,33.4,N/A,,Overcast,330,2013-03-05 20:35:00
2:55 PM,27.7,20.1,73,30.25,10.0,NNW,23.0,29.9,N/A,,Overcast,330,2013-03-05 20:55:00
3:15 PM,27.1,19.0,72,30.26,10.0,NNW,24.2,34.5,N/A,,Overcast,330,2013-03-05 21:15:00
3:35 PM,27.5,19.4,72,30.27,10.0,NW,21.9,31.1,N/A,,Overcast,320,2013-03-05 21:35:00
3:55 PM,27.1,19.4,73,30.27,10.0,NNW,21.9,31.1,N/A,,Overcast,330,2013-03-05 21:55:00
4:15 PM,28.0,19.4,70,30.28,10.0,NNW,21.9,33.4,N/A,,Overcast,330,2013-03-05 22:15:00
4:35 PM,27.5,18.9,70,30.28,10.0,NNW,24.2,35.7,N/A,,Overcast,330,2013-03-05 22:35:00
4:55 PM,26.8,18.9,72,30.29,10.0,NNW,19.6,27.6,N/A,,Mostly Cloudy,340,2013-03-05 22:55:00
5:15 PM,25.9,19.2,76,30.30,10.0,NNW,20.7,27.6,N/A,,Scattered Clouds,340,2013-03-05 23:15:00
5:35 PM,25.5,18.5,75,30.31,10.0,NNW,21.9,28.8,N/A,,Scattered Clouds,330,2013-03-05 23:35:00
5:55 PM,24.8,17.6,74,30.31,10.0,NNW,19.6,28.8,N/A,,Mostly Cloudy,330,2013-03-05 23:55:00
6:15 PM,24.4,18.1,77,30.31,10.0,NNW,15.0,23.0,N/A,,Mostly Cloudy,330,2013-03-06 00:15:00
6:35 PM,24.4,17.8,76,30.32,10.0,North,17.3,27.6,N/A,,Mostly Cloudy,350,2013-03-06 00:35:00
6:55 PM,23.5,17.6,78,30.33,10.0,NNW,18.4,23.0,N/A,,Overcast,340,2013-03-06 00:55:00
7:15 PM,23.7,18.0,79,30.33,10.0,NNW,15.0,-,N/A,,Overcast,340,2013-03-06 01:15:00
7:35 PM,23.5,17.6,78,30.34,10.0,NNW,16.1,24.2,N/A,,Overcast,330,2013-03-06 01:35:00
7:55 PM,23.7,17.6,77,30.34,10.0,NNW,17.3,23.0,N/A,,Overcast,330,2013-03-06 01:55:00
8:15 PM,23.5,17.6,78,30.34,10.0,NNW,17.3,21.9,N/A,,Overcast,330,2013-03-06 02:15:00
8:35 PM,23.4,18.0,80,30.35,10.0,NNW,12.7,-,N/A,,Overcast,330,2013-03-06 02:35:00
8:55 PM,23.2,18.1,81,30.34,10.0,NNW,13.8,19.6,N/A,,Overcast,340,2013-03-06 02:55:00
9:15 PM,23.0,17.2,79,30.36,10.0,North,11.5,18.4,N/A,,Overcast,350,2013-03-06 03:15:00
9:35 PM,22.8,17.1,79,30.35,10.0,North,17.3,21.9,N/A,,Overcast,350,2013-03-06 03:35:00
9:55 PM,22.3,16.9,80,30.36,10.0,North,18.4,21.9,N/A,,Overcast,350,2013-03-06 03:55:00
10:15 PM,21.6,16.7,82,30.37,10.0,NNW,13.8,-,N/A,,Overcast,330,2013-03-06 04:15:00
10:35 PM,21.7,16.7,81,30.37,10.0,NNW,16.1,-,N/A,,Overcast,340,2013-03-06 04:35:00
10:55 PM,21.7,16.7,81,30.38,10.0,NNW,9.2,-,N/A,,Overcast,330,2013-03-06 04:55:00
11:15 PM,21.7,16.7,81,30.38,10.0,North,9.2,-,N/A,,Overcast,350,2013-03-06 05:15:00
11:35 PM,21.9,17.4,83,30.38,10.0,NNW,12.7,-,N/A,,Overcast,340,2013-03-06 05:35:00
11:55 PM,22.1,17.4,82,30.39,10.0,NNW,10.4,-,N/A,,Overcast,330,2013-03-06 05:55:00